sat.trackr.live / text

‹ back to catalog

TIANHUI 5D

NORAD 60212 · 2024-126B

PAYLOAD ACTIVE UNKNOWN

§ Identity

Operator
Country
PRC
Launch date
2024-07-04
Launch site
TAISC
Launch vehicle
Mass (kg)
RCS (m²)

External: N2YO · Heavens-Above · Gunter

§ Orbital elements

Epoch: 2026-05-24T08:31:18.035040Z

Period
96.80 min
Inclination
97.8201°
Eccentricity
0.0001939
Mean motion
14.87572619 rev/d
Perigee alt
604.2 km
Apogee alt
606.9 km
Semi-major
6,983.7 km
B*
1.8308e-5
RAAN
152.2507°
Arg perigee
88.5093°
Mean anomaly
271.6345°
Rev number
10,235

§ Raw data

TIANHUI 5D1 60212U 24126B   26144.35506985  .00000112  00000+0  18308-4 0  99912 60212  97.8201 152.2507 0001939  88.5093 271.6345 14.87572619102356

JSON: /api/v1/satellites/60212 · /tle

For live sub-satellite position, see the globe view (requires WebGL).

§ Visibility from observer

Set your observer location to see the next 7 days of passes ≥ 10°. The values pass through the URL so the page stays shareable.

No JS? Fill the form by hand. The geolocation button needs JavaScript.